This demonstration page uses our WeatherBlox Daily Observations layout. Learn more.

Left ArrowRight Arrow

31.84235, -102.49876

Hourly Observations for May 9, 2017

Temp ( °F °C ) Dew Point ( °F °C ) Humidity (%) Winds ( mph kmh ) Pressure ( in mb ) Visibility ( mi km ) Precip ( " mm )
12:53 am 00:53 Cloudy 68 20 59 15 73 73 SSE 20 31 29.78 1008 10 16 0.00 0.00
1:53 am 01:53 Cloudy 68 20 59 15 73 73 SSE 18 30 29.78 1008 10 16 0.00 0.00
2:53 am 02:53 Cloudy 68 20 59 15 73 73 SSE 22 35 29.75 1007 10 16 0.00 0.00
3:53 am 03:53 Cloudy 68 20 59 15 73 73 S 21 33 29.73 1007 10 16 0.00 0.00
4:53 am 04:53 Cloudy 68 20 59 15 73 73 S 20 31 29.74 1007 10 16 0.00 0.00
5:53 am 05:53 Cloudy 68 20 60 15.6 76 76 SSE 16 26 29.75 1007 10 16 0.00 0.00
6:53 am 06:53 Cloudy 68 20 60 15.6 76 76 SSE 13 20 29.78 1008 10 16 0.00 0.00
7:53 am 07:53 Cloudy 68 20 60 15.6 76 76 SE 14 22 29.80 1009 10 16 0.00 0.00
8:53 am 08:53 Cloudy 69 20.6 60 15.6 73 73 SSE 16 26 29.83 1010 10 16 0.00 0.00
9:22 am 09:22 Mostly Cloudy 71 21.7 60 15.6 68 68 SSE 18 30 29.80 1009 10 16 0.00 0.00
9:53 am 09:53 Mostly Cloudy 72 22.2 59 15 64 64 SSE 16 26 29.83 1010 10 16 0.00 0.00
10:14 am 10:14 Mostly Cloudy 73 22.8 59 15 62 62 SSE 18 30 29.80 1009 10 16 0.00 0.00
10:23 am 10:23 Mostly Cloudy 72 22.2 59 15 64 64 S 18 30 29.80 1009 10 16 0.00 0.00
10:53 am 10:53 Cloudy 75 23.9 59 15 58 58 SSE 14 22 29.83 1010 10 16 0.00 0.00
11:05 am 11:05 Cloudy 74 23.3 59 15 60 60 SSE 17 28 29.80 1009 10 16 0.00 0.00
11:29 am 11:29 Mostly Cloudy 74 23.3 59 15 60 60 SE 18 30 29.80 1009 10 16 0.00 0.00
11:53 am 11:53 Mostly Cloudy 78 25.6 59 15 52 52 SE 17 28 29.82 1010 10 16 0.00 0.00
12:53 pm 12:53 Partly Cloudy 80 26.7 57 13.9 45 45 SSE 16 26 29.80 1009 10 16 0.00 0.00
1:53 pm 13:53 Sunny 82 27.8 55 12.8 40 40 SSE 18 30 29.77 1008 10 16 0.00 0.00
2:53 pm 14:53 Mostly Sunny 82 27.8 55 12.8 40 40 SE 16 26 29.74 1007 10 16 0.00 0.00
3:53 pm 15:53 Partly Cloudy 85 29.4 54 12.2 35 35 SSE 16 26 29.71 1006 10 16 0.00 0.00
4:53 pm 16:53 Partly Cloudy 85 29.4 54 12.2 35 35 SE 23 37 29.68 1005 10 16 0.00 0.00
5:53 pm 17:53 Mostly Sunny 84 28.9 53 11.7 34 34 SSE 25 41 29.66 1005 10 16 0.00 0.00
6:53 pm 18:53 Sunny 82 27.8 55 12.8 40 40 SE 25 41 29.67 1005 10 16 0.00 0.00
7:53 pm 19:53 Sunny 79 26.1 56 13.3 45 45 SE 24 39 29.68 1005 10 16 0.00 0.00
8:53 pm 20:53 Clear 77 25 59 15 54 54 SE 24 39 29.68 1005 10 16 0.00 0.00
9:53 pm 21:53 Clear 76 24.4 59 15 56 56 SSE 23 37 29.69 1005 10 16 0.00 0.00
10:53 pm 22:53 Clear 75 23.9 60 15.6 60 60 SSE 25 41 29.69 1006 10 16 0.00 0.00
11:53 pm 23:53 Clear 74 23.3 62 16.7 67 67 SSE 23 37 29.70 1006 9 14 0.00 0.00

Powered by AerisWeather